Tulsa, OK

7:57 AM CDT on March 30, 2017 (GMT -0500)
Tulsa International

Weather History for KTUL - November, 2013

Change the Weather History Date:

Friday, November 8, 2013

  Actual Average Record
Temperature  
Mean Temperature 55 °F 54 °F  
Max Temperature 68 °F 65 °F 85 °F (2005)
Min Temperature 41 °F 43 °F 16 °F (1991)
Degree Days  
Heating Degree Days 10 12  
Month to date heating degree days 89 83  
Since 1 July heating degree days 272 269  
Growing Degree Days 5 (Base 50)    
Moisture  
Dew Point 33 °F    
Average Humidity 49    
Maximum Humidity 76    
Minimum Humidity 22    
Precipitation  
Precipitation 0.00 in 0.11 in 1.66 in (2011)
Month to date precipitation 1.27 0.88  
Year to date precipitation 30.67 36.55  
Sea Level Pressure  
Sea Level Pressure 30.16 in    
Wind  
Wind Speed 14 mph (South)    
Max Wind Speed 29 mph    
Max Gust Speed 39 mph    
Visibility 10 miles    
Events      
T = Trace of Precipitation, MM = Missing Value Source: NWS Daily Summary

Daily Weather History Graph

Daily Weather History Graph

Search for Another Location

Airport or City:

Trip Planner

Search our weather history database for the weather conditions in past years. The results will help you decide how hot, cold, wet, or windy it might be!

Date:

Astronomy

Nov. 08, 2013 Rise Set
Actual Time 6:53 AM CST 5:20 PM CST
Civil Twilight 6:26 AM CST 5:47 PM CST
Nautical Twilight 5:55 AM CST 6:18 PM CST
Astronomical Twilight 5:25 AM CST 6:48 PM CST
Moon 11:50 AM CST (11/8) 10:42 PM CST (11/8)
Length of Visible Light 11h 20m
Length of Day
10h 26m
Waxing Crescent, 33% of the Moon is Illuminated
Nov 8
Waxing Crescent
Nov 9
First Quarter
Nov 17
Full
Nov 25
Last Quarter
Dec 2
New

Hourly Weather History & Observations

Time (CST) Temp. Windchill Dew Point Humidity Pressure Visibility Wind Dir Wind Speed Gust Speed Precip Events Conditions
12:53 AM 45.0 °F 43.5 °F 35.1 °F 68% 30.32 in 10.0 mi SE 3.5 mph - N/A   Clear
1:53 AM 44.1 °F 40.8 °F 35.1 °F 71% 30.31 in 10.0 mi South 5.8 mph - N/A   Clear
2:53 AM 44.1 °F 39.5 °F 35.1 °F 71% 30.30 in 10.0 mi South 8.1 mph - N/A   Clear
3:53 AM 43.0 °F 38.2 °F 35.1 °F 74% 30.29 in 10.0 mi South 8.1 mph - N/A   Clear
4:53 AM 43.0 °F 38.2 °F 35.1 °F 74% 30.27 in 10.0 mi SSE 8.1 mph - N/A   Clear
5:53 AM 42.1 °F 37.1 °F 34.0 °F 73% 30.28 in 10.0 mi South 8.1 mph - N/A   Clear
6:53 AM 43.0 °F 37.7 °F 34.0 °F 71% 30.27 in 10.0 mi South 9.2 mph - N/A   Partly Cloudy
7:53 AM 45.0 °F 40.6 °F 35.1 °F 68% 30.27 in 10.0 mi SSE 8.1 mph - N/A   Partly Cloudy
8:53 AM 53.1 °F - 36.0 °F 52% 30.25 in 10.0 mi South 11.5 mph - N/A   Scattered Clouds
9:53 AM 57.9 °F - 35.1 °F 42% 30.25 in 10.0 mi South 16.1 mph - N/A   Scattered Clouds
10:53 AM 63.0 °F - 34.0 °F 34% 30.22 in 10.0 mi South 23.0 mph 26.5 mph N/A   Mostly Cloudy
11:53 AM 64.9 °F - 28.9 °F 26% 30.16 in 10.0 mi South 21.9 mph 33.4 mph N/A   Mostly Cloudy
12:53 PM 66.9 °F - 27.0 °F 22% 30.13 in 10.0 mi SSW 25.3 mph 33.4 mph N/A   Mostly Cloudy
1:53 PM 68.0 °F - 28.9 °F 23% 30.09 in 10.0 mi South 25.3 mph 33.4 mph N/A   Mostly Cloudy
2:53 PM 66.9 °F - 30.0 °F 25% 30.07 in 10.0 mi South 20.7 mph 29.9 mph N/A   Mostly Cloudy
3:53 PM 66.9 °F - 30.0 °F 25% 30.05 in 10.0 mi South 25.3 mph 39.1 mph N/A   Mostly Cloudy
4:53 PM 63.0 °F - 30.9 °F 30% 30.05 in 10.0 mi South 20.7 mph - N/A   Mostly Cloudy
5:53 PM 62.1 °F - 30.9 °F 31% 30.03 in 10.0 mi South 24.2 mph 32.2 mph N/A   Mostly Cloudy
6:53 PM 59.0 °F - 35.1 °F 41% 30.05 in 10.0 mi South 17.3 mph 23.0 mph N/A   Mostly Cloudy
7:53 PM 57.0 °F - 37.0 °F 47% 30.04 in 10.0 mi South 16.1 mph - N/A   Mostly Cloudy
8:53 PM 55.9 °F - 36.0 °F 47% 30.06 in 10.0 mi South 15.0 mph - N/A   Mostly Cloudy
9:53 PM 55.0 °F - 34.0 °F 45% 30.09 in 10.0 mi South 6.9 mph - N/A   Mostly Cloudy
10:53 PM 52.0 °F - 35.1 °F 53% 30.09 in 10.0 mi SE 4.6 mph - N/A   Mostly Cloudy
11:53 PM 54.0 °F - 37.0 °F 53% 30.08 in 10.0 mi South 11.5 mph - N/A   Mostly Cloudy